Regional Weather Roundup
Issued by NWS

Home | Current Version | Previous Version | Graphics & Text | Print | Product List | Glossary On
Versions: 1 2 3 4 5 6 7 8 9 10 11 12 13 14 15 16 17 18 19 20 21 22 23 24 25 26 27 28 29 30 31 32 33 34 35 36 37 38 39 40 41 42 43 44 45 46 47 48 49 50
009
ASUS45 KPSR 221510
RWRAZ

ARIZONA HOURLY REGIONAL WEATHER ROUNDUP
NATIONAL WEATHER SERVICE PHOENIX AZ
800 AM MST FRI SEP 22 2017

NOTE: FAIR INDICATES FEW OR NO CLOUDS BELOW 12,000 FEET WITH NO
SIGNIFICANT WEATHER AND/OR OBSTRUCTIONS TO VISIBILITY.

AZZ001>003-036-221600-
NORTHWEST ARIZONA

CITY           SKY/WX    TMP DP  RH WIND       PRES   REMARKS
BULLHEAD CITY  SUNNY     68  32  26 N12       29.76R
KINGMAN        SUNNY     57  31  37 CALM      29.84R
$$

AZZ004>008-015-016-018-221600-
NORTH CENTRAL ARIZONA

CITY           SKY/WX    TMP DP  RH WIND       PRES   REMARKS
GRAND CANYON   MOSUNNY   53  40  61 SW12      29.92S
WILLIAMS       SUNNY     54  41  62 S20       29.92S
PRESCOTT       SUNNY     58  45  62 SE14      29.88R
FLAGSTAFF      CLOUDY    50  42  74 SW17G23   29.96R
PAYSON           N/A     61  37  41 VRB6      29.94S
PAGE           PTSUNNY   61  39  44 N6        29.79S
$$

AZZ009>014-017-221600-
NORTHEAST ARIZONA

CITY           SKY/WX    TMP DP  RH WIND       PRES   REMARKS
WINSLOW        SUNNY     60  30  32 E3        29.89F
SAINT JOHNS    MOSUNNY   61  39  44 N8        29.94S
WINDOW ROCK    CLOUDY    60  37  42 S15G23    30.00S
SHOW LOW       SUNNY     59  36  41 S26G33    29.97S
$$

AZZ540-542>544-546-548-221600-
GREATER PHOENIX AREA

CITY           SKY/WX    TMP DP  RH WIND       PRES   REMARKS
PHOENIX        MOSUNNY   77  44  30 E3        29.74R
BUCKEYE        SUNNY     70  36  28 CALM      29.77R
GLENDALE       MOSUNNY   75  50  41 S12       29.77R
LUKE AFB       SUNNY     74  48  38 SW12      29.74R
DEER VALLEY    SUNNY     75  47  36 SE3       29.76R
SCOTTSDALE     SUNNY     74  41  30 VRB3      29.78R
MESA-FALCON    SUNNY     75  46  35 SE6       29.77R
MESA-GATEWAY   MOSUNNY   73  46  38 SE6       29.78R
CHANDLER       SUNNY     73  48  40 S7        29.76R
$$

AZZ539-553-221600-
SOUTHWEST MARICOPA COUNTY AND PINAL COUNTY

CITY           SKY/WX    TMP DP  RH WIND       PRES   REMARKS
CASA GRANDE    NOT AVBL
$$

AZZ503-504-507>509-221600-
SOUTHEAST ARIZONA

CITY           SKY/WX    TMP DP  RH WIND       PRES   REMARKS
TUCSON         SUNNY     77  40  26 S9        29.86R
DAVIS-MONTHAN  SUNNY     75  38  25 S7        29.84R
RYAN FIELD     SUNNY     77  45  31 SE9       29.84R
NOGALES        SUNNY     71  45  39 S8        29.93R
SIERRA VISTA   MOSUNNY   72  43  35 SE10G18   29.97R
DOUGLAS        MOSUNNY   71  49  45 SE8       29.96R
SAFFORD        MOSUNNY   75  42  30 E10       29.85R
$$

AZZ532-221600-
SOUTHWEST ARIZONA

CITY           SKY/WX    TMP DP  RH WIND       PRES   REMARKS
YUMA           SUNNY     68  42  38 NW12      29.77R
$$

CAZ041-043-047-048-061-525>527-560>570-221600-
SOUTHERN CALIFORNIA

CITY           SKY/WX    TMP DP  RH WIND       PRES   REMARKS
DOWNTOWN L.A.  MOSUNNY   65  52  62 CALM      29.87R
L.A. AIRPORT   MOSUNNY   62  53  72 NE5       29.87R
SAN DIEGO      PTSUNNY   64  51  62 SE9       29.89R
BURBANK        SUNNY     57  48  72 CALM      29.88R
ONTARIO        MOSUNNY   58  49  72 CALM      29.88R
RIVERSIDE      MOSUNNY   58  51  78 CALM      29.89R
PALM SPRINGS   SUNNY     65  46  50 SW3       29.81R
EL CENTRO NAS  SUNNY     68  41  37 W13       29.80R
IMPERIAL       SUNNY     64  45  49 CALM      29.78R
BLYTHE         SUNNY     67  36  31 SW7       29.77R
NEEDLES        SUNNY     71  24  17 NW5       29.77R
$$

NVZ020-UTZ003-221600-
SOUTHERN NEVADA-UTAH

CITY           SKY/WX    TMP DP  RH WIND       PRES   REMARKS
LAS VEGAS      SUNNY     61  28  28 VRB3      29.82R
SALT LAKE CITY LGT RAIN  46  41  82 N3        29.88R
$$

NMZ009-TXZ055-221600-
NEW MEXICO-WEST TEXAS

CITY           SKY/WX    TMP DP  RH WIND       PRES   REMARKS
ALBUQUERQUE    CLOUDY    69  37  30 S9        29.99R
EL PASO        MOSUNNY   77  45  32 S6        29.94R
$$


........................KEY........................
SKY/WX - SKY CONDITION/WEATHER
TMP    - TEMPERATURE IN FAHRENHEIT
DP     - DEW POINT IN FAHRENHEIT
RH     - RELATIVE HUMIDITY IN PERCENT
WIND   - DIRECTION AND SPEED IN MILES PER HOUR (MPH)
VRB    - VARIABLE WIND DIRECTION
PRES   - MEAN SEA LEVEL PRESSURE IN INCHES OF MERCURY
         F - FALLING PRESSURE   R - RISING PRESSURE
         S - STEADY PRESSURE
VSB    - VISIBILITY IN MILES
HX     - HEAT INDEX IN FAHRENHEIT
WCI    - WIND CHILL INDEX IN FAHRENHEIT
TC     - TEMPERATURE IN CELSIUS WHICH IS ALSO KNOWN AS
         TEMPERATURE IN CENTIGRADE
AFB    - AIR FORCE BASE
         LUKE AFB IS LUKE AIR FORCE BASE
         DAVIS-MONTHAN IS DAVIS-MONTHAN AIR FORCE BASE
NAS    - NAVAL AIR STATION
         EL CENTRO NAS IS EL CENTRO NAVAL AIR STATION
N/A    - NOT AVAILABLE





USA.gov is the U.S. government's official web portal to all federal, state and local government web resources and services.